�N����,����,�~����,�C��,���x,�C��,����,���ϕ���,�ő�u�ԕ���,�ő厞����,���˗�,�I�_���x,�n�����x,�ő啗���N��,DTYPE
"19/06/21","00:10",0.0,21.6,73.4,1002.2,317.4,1.2,1.9,307.5,0.00,16.7,23.2,"00:07:52",1
"19/06/21","00:20",0.0,21.3,74.3,1002.4,288.2,1.1,1.7,314.8,0.00,16.6,23.0,"00:11:44",1
"19/06/21","00:30",0.0,21.0,74.3,1002.2,299.8,1.0,1.4,324.8,0.00,16.3,23.0,"00:22:00",1
"19/06/21","00:40",0.0,20.9,75.5,1002.2,305.6,1.1,2.1,331.0,0.00,16.5,23.0,"00:32:16",1
"19/06/21","00:50",0.0,20.8,75.8,1002.2,287.1,1.0,1.6,301.2,0.00,16.4,22.9,"00:49:52",1
"19/06/21","01:00",0.0,20.8,75.4,1002.2,301.3,1.1,1.9,331.1,0.00,16.3,22.8,"00:51:36",1
"19/06/21","01:10",0.0,20.6,74.9,1002.2,294.9,1.1,1.4,316.0,0.00,16.0,22.7,"01:00:40",1
"19/06/21","01:20",0.0,20.8,76.7,1002.2,317.8,1.1,1.3,320.3,0.00,16.6,22.5,"01:18:48",1
"19/06/21","01:30",0.0,20.2,77.4,1001.7,314.7,1.3,2.1,316.3,0.00,16.2,22.7,"01:27:28",1
"19/06/21","01:40",0.0,20.3,77.3,1002.2,319.0,1.5,2.5,318.1,0.00,16.2,22.5,"01:37:20",1
"19/06/21","01:50",0.0,20.3,76.8,1002.2,300.8,1.0,1.9,318.5,0.00,16.1,22.6,"01:46:48",1
"19/06/21","02:00",0.0,20.2,76.2,1001.7,291.8,1.0,2.1,327.2,0.00,15.9,22.4,"01:59:36",1
"19/06/21","02:10",0.0,20.3,75.2,1001.9,290.9,0.8,1.9,308.0,0.00,15.8,22.2,"02:00:16",1
"19/06/21","02:20",0.0,20.2,74.8,1001.9,298.6,1.0,1.7,323.6,0.00,15.6,22.2,"02:16:32",1
"19/06/21","02:30",0.0,20.1,75.1,1001.9,301.0,1.0,1.4,331.5,0.00,15.6,22.3,"02:22:08",1
"19/06/21","02:40",0.0,20.2,75.2,1002.4,320.2,1.2,2.1,337.1,0.00,15.7,22.2,"02:32:48",1
"19/06/21","02:50",0.0,20.1,76.6,1001.9,307.0,0.8,1.4,331.9,0.00,15.9,22.2,"02:49:52",1
"19/06/21","03:00",0.0,19.8,77.5,1002.2,309.7,1.0,1.2,323.6,0.00,15.8,22.2,"02:50:24",1
"19/06/21","03:10",0.0,19.7,78.8,1001.9,299.9,1.1,2.1,327.5,0.00,16.0,22.1,"03:01:52",1
"19/06/21","03:20",0.0,19.7,78.7,1002.2,288.5,0.8,1.3,307.8,0.00,15.9,21.9,"03:13:04",1
"19/06/21","03:30",0.0,19.7,78.9,1002.2,308.5,1.1,1.6,320.8,0.00,16.0,22.1,"03:25:04",1
"19/06/21","03:40",0.0,19.8,79.6,1002.4,326.7,1.2,1.8,335.8,0.00,16.2,22.0,"03:34:40",1
"19/06/21","03:50",0.0,19.4,80.4,1001.7,288.5,0.8,1.3,309.6,0.00,16.0,21.8,"03:40:40",1
"19/06/21","04:00",0.0,19.5,80.9,1002.2,302.1,1.1,1.7,316.1,0.00,16.2,21.8,"03:50:56",1
"19/06/21","04:10",0.0,19.6,80.3,1001.9,308.9,1.1,1.6,317.1,0.00,16.2,21.9,"04:07:12",1
"19/06/21","04:20",0.0,19.6,79.9,1002.2,291.1,0.8,1.3,318.5,0.00,16.1,21.7,"04:10:40",1
"19/06/21","04:30",0.0,19.8,80.9,1001.9,319.7,1.2,1.7,333.9,0.00,16.5,21.7,"04:28:40",1
"19/06/21","04:40",0.0,19.6,81.8,1002.2,329.3,1.0,1.3,331.0,0.00,16.4,21.8,"04:35:04",1
"19/06/21","04:50",0.0,19.3,83.2,1002.4,285.3,0.7,1.3,313.6,0.00,16.4,21.7,"04:48:56",1
"19/06/21","05:00",0.0,18.9,84.1,1002.2,292.3,0.7,1.6,317.9,0.00,16.2,21.6,"04:53:04",1
"19/06/21","05:10",0.0,19.0,85.6,1002.2,321.0,0.8,1.6,332.4,0.00,16.6,21.7,"05:06:08",1
"19/06/21","05:20",0.0,19.0,85.4,1002.6,312.7,1.0,1.2,317.5,0.00,16.5,21.7,"05:10:08",1
"19/06/21","05:30",0.0,18.7,85.6,1002.4,290.4,0.8,1.2,300.6,0.00,16.3,21.4,"05:29:36",1
"19/06/21","05:40",0.0,18.8,85.5,1002.6,301.7,1.1,1.6,316.7,0.00,16.4,21.5,"05:30:40",1
"19/06/21","05:50",0.0,19.1,85.3,1002.4,309.6,1.1,1.6,317.8,0.00,16.6,21.5,"05:43:12",1
"19/06/21","06:00",0.0,19.1,84.9,1002.6,304.9,1.0,1.3,318.5,0.00,16.5,21.5,"05:55:12",1
"19/06/21","06:10",0.0,19.3,84.6,1002.4,289.6,1.0,1.2,318.5,0.00,16.7,21.4,"06:00:24",1
"19/06/21","06:20",0.0,19.4,84.2,1002.6,313.9,1.0,1.4,314.0,0.00,16.7,21.5,"06:14:48",1
"19/06/21","06:30",0.0,19.6,84.1,1002.6,309.1,1.0,1.3,320.1,0.01,16.9,21.5,"06:20:32",1
"19/06/21","06:40",0.0,19.9,84.0,1003.1,287.8,0.8,1.4,286.2,0.03,17.2,21.5,"06:37:04",1
"19/06/21","06:50",0.0,20.3,83.5,1003.1,311.6,1.1,1.9,333.7,0.04,17.5,21.4,"06:49:28",1
"19/06/21","07:00",0.0,20.6,82.4,1003.1,320.4,1.2,1.9,329.8,0.05,17.5,21.5,"06:52:00",1
"19/06/21","07:10",0.0,20.9,81.4,1002.6,326.4,1.3,1.9,335.2,0.06,17.6,21.4,"07:04:32",1
"19/06/21","07:20",0.0,21.3,81.0,1002.6,309.3,0.8,1.4,322.0,0.05,17.9,21.5,"07:11:20",1
"19/06/21","07:30",0.0,21.8,79.7,1002.9,299.8,0.7,1.0,314.6,0.08,18.2,21.7,"07:25:04",1
"19/06/21","07:40",0.0,22.5,76.6,1002.6,312.4,0.8,1.2,339.6,0.10,18.2,21.8,"07:38:40",1
"19/06/21","07:50",0.0,22.5,75.9,1002.9,301.3,0.8,1.3,310.7,0.10,18.1,21.9,"07:40:24",1
"19/06/21","08:00",0.0,22.7,73.9,1002.6,257.4,0.3,1.1,247.2,0.12,17.8,21.9,"07:56:08",1
"19/06/21","08:10",0.0,23.3,71.3,1002.6,265.6,0.3,0.8,242.4,0.12,17.9,21.7,"08:01:12",1
"19/06/21","08:20",0.0,23.9,71.4,1002.2,328.1,0.2,0.8,307.5,0.14,18.5,21.9,"08:19:20",1
"19/06/21","08:30",0.0,23.8,69.4,1002.2,327.3,1.1,1.8,331.0,0.16,17.9,22.0,"08:22:32",1
"19/06/21","08:40",0.0,24.2,69.5,1002.2,325.7,1.0,2.1,340.9,0.18,18.3,22.3,"08:30:08",1
"19/06/21","08:50",0.0,24.6,67.9,1001.7,244.6,0.7,1.6,203.3,0.27,18.3,22.2,"08:46:56",1
"19/06/21","09:00",0.0,25.2,67.7,1001.7,167.9,0.6,1.4,182.0,0.29,18.8,22.6,"08:50:40",1
"19/06/21","09:10",0.0,25.3,66.4,1001.0,157.9,0.6,1.2,154.7,0.27,18.6,22.6,"09:08:08",1
"19/06/21","09:20",0.0,25.8,64.0,1001.0,109.6,0.6,1.9,69.8,0.32,18.5,22.7,"09:12:56",1
"19/06/21","09:30",0.0,25.9,62.8,1001.5,168.6,0.7,1.8,146.3,0.31,18.3,22.8,"09:27:44",1
"19/06/21","09:40",0.0,26.7,65.1,1001.7,152.1,0.8,1.9,224.4,0.29,19.6,22.8,"09:30:08",1
"19/06/21","09:50",0.0,26.7,62.9,1001.2,182.8,0.8,2.1,226.3,0.35,19.1,23.2,"09:43:12",1
"19/06/21","10:00",0.0,26.9,61.4,1001.9,135.9,0.8,2.7,140.1,0.37,18.9,23.2,"09:58:32",1
"19/06/21","10:10",0.0,26.8,61.0,1001.9,165.4,1.0,2.7,208.8,0.34,18.7,23.2,"10:08:24",1
"19/06/21","10:20",0.0,27.3,60.5,1002.2,194.3,1.8,3.3,203.7,0.47,19.0,23.5,"10:10:32",1
"19/06/21","10:30",0.0,27.5,60.3,1002.4,195.0,1.2,3.3,189.7,0.42,19.2,23.8,"10:26:00",1
"19/06/21","10:40",0.0,27.3,57.9,1002.2,181.9,1.3,2.6,191.7,0.37,18.3,24.1,"10:33:36",1
"19/06/21","10:50",0.0,28.4,57.1,1002.4,173.4,0.7,2.1,121.0,0.48,19.1,24.2,"10:47:52",1
"19/06/21","11:00",0.0,27.9,57.5,1002.2,193.1,2.1,4.0,202.4,0.37,18.8,24.5,"10:52:48",1
"19/06/21","11:10",0.0,29.1,56.8,1001.9,181.1,1.0,3.5,125.1,0.51,19.7,24.6,"11:05:52",1
"19/06/21","11:20",0.0,28.1,57.3,1002.2,146.0,1.3,3.2,206.7,0.40,18.9,24.9,"11:15:12",1
"19/06/21","11:30",0.0,28.8,54.3,1002.4,168.9,1.7,4.0,158.4,0.50,18.7,25.0,"11:28:00",1
"19/06/21","11:40",0.0,29.5,55.8,1002.4,174.0,1.5,3.2,216.6,0.53,19.8,25.2,"11:37:44",1
"19/06/21","11:50",0.0,29.1,52.7,1002.2,151.8,1.2,3.1,200.5,0.48,18.5,25.4,"11:49:36",1
"19/06/21","12:00",0.0,29.4,53.4,1002.2,189.5,1.5,3.6,204.3,0.53,19.0,25.8,"11:55:04",1
"19/06/21","12:10",0.0,30.2,51.2,1002.4,201.0,1.1,3.3,205.3,0.58,19.0,25.8,"12:03:36",1
"19/06/21","12:20",0.0,29.9,52.3,1002.4,174.9,1.7,4.8,186.3,0.41,19.1,26.0,"12:12:56",1
"19/06/21","12:30",0.0,29.8,51.9,1001.9,197.7,1.6,4.1,229.8,0.42,18.9,26.2,"12:24:16",1
"19/06/21","12:40",0.0,30.1,50.6,1001.9,185.5,2.0,3.9,145.2,0.58,18.8,26.3,"12:39:44",1
"19/06/21","12:50",0.0,29.7,53.7,1001.5,172.5,2.0,3.4,200.1,0.39,19.4,26.5,"12:40:56",1
"19/06/21","13:00",0.0,30.3,51.5,1001.2,184.4,1.7,3.6,226.1,0.48,19.2,26.7,"12:55:36",1
"19/06/21","13:10",0.0,30.3,52.9,1001.5,127.2,1.0,2.8,156.1,0.44,19.7,26.9,"13:00:56",1
"19/06/21","13:20",0.0,30.7,48.5,1001.5,173.5,1.0,2.2,144.5,0.56,18.6,26.8,"13:12:24",1
"19/06/21","13:30",0.0,31.4,51.2,1001.7,165.9,1.6,4.0,193.2,0.55,20.2,26.6,"13:24:16",1
"19/06/21","13:40",0.0,31.0,50.2,1001.5,167.1,2.0,4.2,179.6,0.53,19.5,26.9,"13:35:20",1
"19/06/21","13:50",0.0,31.2,46.2,1001.2,183.9,2.5,5.2,199.8,0.55,18.3,26.7,"13:44:24",1
"19/06/21","14:00",0.0,31.5,49.3,1000.8,170.4,2.2,5.1,229.9,0.52,19.6,26.8,"13:51:12",1
"19/06/21","14:10",0.0,31.4,47.4,1001.0,175.1,1.5,3.3,219.5,0.47,18.9,26.8,"14:05:04",1
"19/06/21","14:20",0.0,32.0,47.1,1000.8,181.8,1.2,4.4,206.1,0.47,19.4,26.9,"14:16:48",1
"19/06/21","14:30",0.0,31.3,45.4,1000.5,189.7,1.8,4.7,200.5,0.42,18.1,27.2,"14:27:36",1
"19/06/21","14:40",0.0,31.9,45.6,1000.3,311.4,1.2,2.5,211.6,0.40,18.7,27.1,"14:32:56",1
"19/06/21","14:50",0.0,32.3,47.5,1000.5,296.7,1.0,3.1,291.0,0.41,19.8,27.3,"14:42:16",1
"19/06/21","15:00",0.0,31.4,46.1,1000.3,240.1,1.6,4.7,217.5,0.47,18.5,27.4,"14:59:52",1
"19/06/21","15:10",0.0,31.5,49.2,1000.5,226.5,1.2,3.2,204.2,0.48,19.6,27.7,"15:03:52",1
"19/06/21","15:20",0.0,29.9,51.0,1000.5,323.6,1.7,4.1,3.4,0.17,18.7,27.4,"15:18:24",1
"19/06/21","15:30",0.0,29.5,56.2,999.6,88.8,0.8,2.0,122.8,0.18,19.9,27.4,"15:24:24",1
"19/06/21","15:40",0.0,29.6,53.7,999.8,47.5,1.0,2.6,72.7,0.07,19.3,27.4,"15:37:52",1
"19/06/21","15:50",0.0,28.5,55.4,999.3,93.1,1.3,2.7,137.2,0.07,18.7,27.2,"15:47:12",1
"19/06/21","16:00",0.0,28.4,54.4,998.6,75.6,1.2,3.3,93.2,0.09,18.4,27.0,"15:52:48",1
"19/06/21","16:10",0.0,27.8,58.5,998.6,119.0,1.6,3.6,197.6,0.07,19.0,26.9,"16:07:28",1
"19/06/21","16:20",0.0,26.8,62.6,998.6,137.2,1.5,4.7,142.1,0.01,19.1,26.8,"16:11:44",1
"19/06/21","16:30",0.0,26.4,64.6,998.9,107.7,1.2,4.0,171.7,0.00,19.2,26.5,"16:20:08",1
"19/06/21","16:40",0.0,25.1,64.5,999.6,47.6,1.8,4.8,26.7,0.00,18.0,26.4,"16:39:12",1
"19/06/21","16:50",0.0,24.2,67.1,999.8,22.5,1.8,4.4,80.0,0.00,17.8,26.2,"16:40:16",1
"19/06/21","17:00",0.0,24.0,67.9,1000.0,5.9,2.3,5.4,340.1,0.00,17.7,26.0,"16:53:44",1
"19/06/21","17:10",0.0,24.0,68.1,1000.0,351.8,2.2,4.7,337.5,0.02,17.8,25.9,"17:04:40",1
"19/06/21","17:20",0.0,24.1,67.3,999.6,341.6,2.5,4.9,345.9,0.04,17.7,25.5,"17:13:52",1
"19/06/21","17:30",0.0,24.2,68.0,999.8,339.7,1.6,3.5,345.9,0.04,18.0,25.6,"17:22:48",1
"19/06/21","17:40",0.0,24.1,67.7,999.8,332.2,1.8,3.6,332.2,0.02,17.8,25.3,"17:37:28",1
"19/06/21","17:50",0.0,24.1,69.5,999.8,338.2,1.6,3.2,323.4,0.05,18.2,25.4,"17:40:16",1
"19/06/21","18:00",0.0,24.1,68.6,1000.5,280.3,1.1,1.9,344.7,0.02,18.0,25.4,"17:51:12",1
"19/06/21","18:10",0.0,24.1,68.9,1001.0,215.0,1.5,4.5,139.8,0.00,18.1,25.0,"18:09:28",1
"19/06/21","18:20",0.2,23.5,74.7,1001.5,197.4,2.8,6.5,220.3,0.00,18.8,24.9,"18:11:20",1
"19/06/21","18:30",1.4,22.0,82.7,1001.7,226.6,2.1,5.4,235.0,0.00,19.0,25.0,"18:22:48",1
"19/06/21","18:40",2.8,21.7,85.2,1001.7,70.3,0.2,1.1,18.6,0.00,19.1,24.6,"18:37:44",1
"19/06/21","18:50",2.2,21.4,86.6,1001.5,66.4,0.5,1.3,7.4,0.00,19.1,24.5,"18:43:12",1
"19/06/21","19:00",1.0,21.1,88.0,1001.5,336.9,1.2,2.7,351.3,0.00,19.1,24.5,"18:59:28",1
"19/06/21","19:10",0.4,21.1,88.9,1001.5,336.3,1.6,3.5,336.1,0.00,19.2,24.5,"19:00:32",1
"19/06/21","19:20",0.2,20.9,89.5,1001.0,354.1,1.3,2.2,0.3,0.00,19.1,24.2,"19:12:32",1
"19/06/21","19:30",0.2,20.8,89.9,1000.8,329.6,0.8,2.4,346.2,0.00,19.1,24.2,"19:21:04",1
"19/06/21","19:40",0.0,20.6,90.7,1001.0,280.1,0.7,1.6,316.4,0.00,19.1,23.9,"19:30:40",1
"19/06/21","19:50",0.0,20.7,90.5,1001.0,227.4,0.8,1.6,231.8,0.00,19.1,24.2,"19:40:56",1
"19/06/21","20:00",0.0,20.5,90.9,1001.2,220.7,0.6,1.3,250.1,0.00,19.0,23.8,"19:57:44",1
"19/06/21","20:10",0.0,20.3,91.2,1001.7,269.5,0.8,1.6,265.3,0.00,18.9,23.7,"20:04:40",1
"19/06/21","20:20",0.0,20.2,91.6,1001.7,264.7,0.5,1.9,330.2,0.00,18.8,23.6,"20:12:08",1
"19/06/21","20:30",0.0,20.1,91.9,1001.5,319.4,0.8,1.6,306.6,0.00,18.8,23.5,"20:29:20",1
"19/06/21","20:40",0.0,20.0,92.1,1001.7,298.6,1.0,1.7,321.5,0.00,18.7,23.5,"20:30:08",1
"19/06/21","20:50",0.0,19.8,92.4,1001.7,275.4,0.6,1.1,296.4,0.00,18.6,23.4,"20:49:28",1
"19/06/21","21:00",0.0,19.8,92.6,1001.7,269.4,0.8,1.4,264.6,0.00,18.6,23.3,"20:53:36",1
"19/06/21","21:10",0.0,19.7,92.7,1001.9,267.7,0.8,1.6,250.4,0.00,18.5,23.4,"21:05:20",1
"19/06/21","21:20",0.0,19.7,93.0,1002.2,296.5,1.0,1.8,308.7,0.00,18.6,23.1,"21:15:44",1
"19/06/21","21:30",0.0,19.7,93.4,1002.4,290.8,0.7,1.3,305.7,0.00,18.6,23.2,"21:20:16",1
"19/06/21","21:40",0.0,19.7,93.2,1002.2,293.7,0.8,1.4,313.4,0.00,18.6,23.1,"21:30:02",1
"19/06/21","21:50",0.0,19.5,93.3,1002.4,276.7,0.7,1.3,320.6,0.00,18.4,23.1,"21:40:40",1
"19/06/21","22:00",0.0,19.4,93.5,1002.4,286.4,0.8,1.0,271.0,0.00,18.4,22.9,"21:50:16",1
"19/06/21","22:10",0.0,19.4,93.5,1002.4,298.9,1.2,3.2,304.9,0.00,18.4,22.8,"22:06:48",1
"19/06/21","22:20",0.0,19.4,93.8,1002.6,285.7,0.8,2.0,312.8,0.00,18.4,23.1,"22:10:24",1
"19/06/21","22:30",0.0,19.3,93.7,1002.4,285.8,0.8,1.2,270.5,0.00,18.3,22.8,"22:20:40",1
"19/06/21","22:40",0.0,19.4,94.1,1002.2,286.4,0.8,1.3,310.3,0.00,18.5,22.8,"22:39:28",1
"19/06/21","22:50",0.0,19.4,94.1,1002.2,285.3,0.7,1.3,323.1,0.00,18.5,22.8,"22:40:16",1
"19/06/21","23:00",0.0,19.4,94.1,1002.2,272.2,0.7,1.0,268.4,0.00,18.5,22.7,"22:52:00",1
"19/06/21","23:10",0.0,19.5,94.1,1002.2,276.0,0.8,1.3,275.9,0.00,18.6,22.7,"23:04:08",1
"19/06/21","23:20",0.0,19.5,94.2,1002.2,283.2,0.7,1.1,309.0,0.00,18.6,22.5,"23:13:28",1
"19/06/21","23:30",0.0,19.4,94.1,1001.7,271.8,0.8,1.6,264.2,0.00,18.5,22.5,"23:26:16",1
"19/06/21","23:40",0.0,19.4,94.3,1002.2,298.8,0.8,1.2,311.2,0.00,18.5,22.5,"23:39:28",1
"19/06/21","23:50",0.0,19.4,94.2,1002.2,280.0,1.0,1.8,336.2,0.00,18.5,22.6,"23:40:24",1
"19/06/21","24:00",0.0,19.6,94.7,1001.9,303.7,0.8,1.6,327.3,0.00,18.8,22.7,"23:56:56",1
